Vorticity
-10 85 6 29 23 6 27 11 8 4 7 6 5 -6 19 -1 11 7 1 3 19 6 3 16 16 9 4 4 4 4 3 3
34 44 -6 9 38 -8 7 1 6 9 12 8 11 18 6 1 22 4 2 4 6 6 15 10 8 2 4 5 4 3 2 2
46 4 -2 1 -16 -11 5 5 18 7 -3 -2 12 -11 3 -19 7 21 5 2 5 12 6 6 5 7 3 6 4 1 1 5
-8 18 14 -3 16 23 -6 1 -20 16 -4 2 21 -2 -4 26 15 7 5 5 31 19 3 6 5 5 4 2 3 2 4 5
8 10 10 10 11 -0 35 -5 11 5 -6 34 12 16 6 17 -15 15 20 14 31 1 6 6 3 3 2 1 4 6 4 3
5 -2 6 2 13 10 13 -11 -5 -4 27 -22 6 11 13 -1 14 25 20 46 8 1 6 2 2 2 2 2 3 6 2 2
6 3 1 7 8 9 3 13 -6 1 20 -2 8 5 -2 15 15 11 26 20 1 5 3 2 1 2 2 2 3 4 4 6
6 10 6 11 11 13 21 20 -0 13 9 3 15 9 24 22 16 40 14 -5 5 7 4 2 2 1 2 4 6 -1 4 3
12 12 17 8 8 2 4 -5 -7 11 7 -3 35 22 12 29 7 7 -0 6 7 5 2 2 2 -1 2 2 7 4 -1 -2
16 5 12 1 8 11 7 2 47 26 0 31 15 30 18 4 2 1 3 7 5 1 1 2 -0 1 1 -2 2 7 3 -1
38 37 47 50 51 40 44 3 6 20 29 23 9 1 0 0 3 10 11 7 3 1 0 1 -0 0 -1 -0 4 5 4 2
5 3 7 5 6 6 8 8 -1 10 7 3 3 -1 -1 5 11 6 4 3 2 0 0 -0 2 2 1 3 9 7 10 4
3 4 1 -2 5 8 8 8 10 12 4 5 12 7 1 7 7 6 4 2 0 0 -0 -0 2 5 5 4 10 13 5 3
6 8 8 10 6 7 7 6 3 4 7 7 6 24 4 13 8 9 4 2 1 1 1 3 3 1 6 -0 8 14 4 -1
8 7 7 7 7 7 7 7 6 7 9 7 8 9 10 9 7 5 4 3 1 -1 2 1 1 3 5 6 1 5 -6 4
4 1 3 5 3 4 4 5 6 7 7 6 7 6 7 6 2 4 2 12 7 3 2 4 0 -3 4 32 -1 7 5 -3
3 6 4 4 4 6 6 7 -0 4 8 8 8 8 8 7 7 5 11 15 14 16 -1 -9 8 19 27 1 8 1 3 2
8 5 2 6 10 7 5 3 8 5 9 10 8 7 5 2 -1 14 -1 7 5 20 27 35 13 -7 -3 6 6 5 12 2
3 10 6 6 7 5 6 -1 14 -10 11 7 8 9 6 7 1 1 4 8 26 -3 1 2 3 3 7 9 13 6 3 14
9 4 4 5 3 4 4 7 6 2 14 -11 -22 21 27 10 3 -3 8 4 6 5 8 7 5 5 6 9 5 13 8 10
Height
5771 5756 5773 5784 5787 5790 5794 5800 5805 5808 5810 5812 5813 5813 5814 5816 5818 5818 5818 5819 5821 5821 5821 5823 5824 5826 5827 5831 5832 5831 5831 5832
5764 5764 5772 5781 5782 5785 5790 5793 5799 5802 5806 5808 5809 5810 5812 5810 5811 5813 5815 5815 5817 5817 5818 5820 5822 5824 5826 5829 5828 5830 5829 5828
5763 5764 5773 5777 5778 5778 5786 5792 5797 5799 5801 5803 5806 5807 5805 5804 5806 5807 5809 5811 5812 5813 5816 5818 5820 5821 5824 5826 5824 5825 5824 5825
5763 5768 5773 5777 5776 5777 5782 5788 5790 5793 5797 5797 5799 5800 5801 5801 5801 5803 5803 5805 5806 5808 5813 5815 5817 5820 5821 5823 5820 5821 5822 5822
5764 5767 5770 5770 5775 5780 5783 5784 5787 5788 5791 5791 5793 5794 5797 5797 5797 5798 5800 5801 5803 5807 5811 5812 5816 5817 5819 5820 5818 5818 5819 5818
5763 5768 5770 5770 5772 5774 5776 5778 5782 5785 5786 5788 5789 5790 5790 5792 5794 5794 5795 5797 5800 5805 5808 5810 5812 5814 5816 5816 5816 5814 5814 5813
5763 5766 5767 5766 5767 5767 5772 5774 5778 5778 5780 5783 5784 5784 5786 5788 5790 5791 5792 5795 5798 5804 5806 5808 5809 5811 5812 5812 5813 5811 5810 5809
5760 5762 5762 5761 5763 5766 5767 5770 5773 5773 5773 5777 5778 5780 5781 5784 5786 5789 5791 5793 5799 5802 5803 5806 5808 5808 5808 5808 5807 5806 5805 5803
5755 5757 5759 5761 5763 5764 5766 5767 5768 5770 5771 5773 5773 5775 5780 5781 5786 5788 5791 5795 5797 5799 5800 5803 5803 5804 5805 5803 5802 5799 5800 5799
5750 5751 5753 5755 5758 5760 5761 5764 5764 5765 5766 5767 5770 5774 5779 5782 5786 5788 5792 5794 5795 5797 5798 5798 5799 5799 5800 5799 5796 5794 5792 5793
5747 5750 5750 5751 5755 5758 5759 5761 5762 5765 5765 5767 5771 5773 5779 5782 5783 5788 5790 5792 5792 5793 5795 5794 5795 5794 5793 5792 5791 5789 5787 5785
5750 5750 5752 5756 5757 5757 5759 5761 5762 5766 5766 5771 5773 5777 5780 5779 5781 5785 5787 5788 5790 5790 5790 5788 5788 5788 5786 5785 5785 5782 5780 5778
5752 5753 5754 5753 5756 5759 5762 5760 5763 5765 5767 5772 5776 5777 5776 5778 5778 5781 5784 5785 5785 5785 5784 5782 5782 5782 5780 5779 5778 5775 5773 5771
5752 5753 5753 5755 5758 5758 5759 5761 5763 5765 5768 5770 5772 5772 5773 5776 5777 5778 5780 5781 5782 5780 5778 5778 5778 5777 5775 5772 5769 5767 5764 5762
5752 5753 5755 5757 5758 5759 5760 5763 5761 5763 5765 5766 5767 5768 5770 5772 5774 5775 5775 5778 5778 5778 5776 5773 5770 5770 5768 5765 5761 5760 5756 5752
5755 5755 5757 5759 5760 5759 5759 5761 5761 5762 5762 5763 5764 5764 5766 5766 5769 5771 5771 5770 5769 5769 5769 5766 5762 5760 5759 5754 5753 5750 5746 5742
5755 5756 5757 5757 5758 5759 5759 5760 5759 5760 5760 5760 5760 5761 5761 5763 5764 5765 5766 5765 5762 5760 5758 5756 5754 5750 5748 5747 5744 5740 5735 5731
5755 5754 5754 5754 5754 5754 5754 5756 5757 5759 5759 5757 5756 5756 5756 5757 5758 5759 5757 5757 5755 5753 5750 5748 5745 5743 5740 5737 5734 5729 5724 5720
5752 5751 5751 5751 5751 5751 5753 5753 5753 5753 5752 5752 5754 5753 5750 5750 5749 5751 5752 5750 5748 5746 5744 5740 5737 5734 5730 5727 5723 5718 5713 5708
5747 5747 5748 5748 5748 5746 5745 5747 5746 5745 5744 5745 5746 5745 5744 5744 5744 5744 5744 5741 5739 5737 5734 5731 5727 5724 5720 5716 5712 5707 5702 5697